Total_Precipitation_Accumulation
0.00 0.02 0.01 0.00 0.00 0.00 0.01 0.01 0.00 0.00 0.00 0.00 0.00 0.00 0.02 0.14 0.04 0.02 0.03 0.01 0.01 0.00 0.01 0.04 0.07 0.08 0.07 0.13 0.40 0.50 0.77 0.94 0.65 0.41 0.36 0.41 0.49 0.58 0.96 1.02 0.76 0.99 1.25 1.22
0.04 0.03 0.00 0.00 0.00 0.00 0.02 0.03 0.01 0.01 0.01 0.02 0.01 0.00 0.00 0.02 0.00 0.00 0.00 0.00 0.00 0.00 0.00 0.01 0.03 0.05 0.08 0.17 0.40 0.49 0.34 0.36 0.43 0.37 0.23 0.16 0.22 0.35 0.69 1.03 0.81 0.85 0.97 1.02
0.05 0.02 0.00 0.02 0.01 0.01 0.01 0.05 0.03 0.03 0.02 0.00 0.03 0.00 0.00 0.01 0.03 0.07 0.01 0.00 0.00 0.00 0.02 0.02 0.04 0.04 0.06 0.09 0.16 0.30 0.17 0.13 0.22 0.41 0.56 0.53 0.34 0.40 1.13 1.43 1.10 0.87 0.95 0.99
0.20 0.03 0.03 0.03 0.01 0.07 0.06 0.00 0.02 0.02 0.12 0.08 0.09 0.14 0.06 0.07 0.09 0.07 0.02 0.01 0.00 0.01 0.01 0.00 0.00 0.00 0.03 0.03 0.07 0.29 0.15 0.08 0.16 0.26 0.45 0.67 0.70 0.53 0.73 1.21 1.06 0.84 1.14 1.10
0.25 0.03 0.05 0.06 0.03 0.07 0.05 0.00 0.02 0.04 0.12 0.26 0.10 0.50 0.24 0.12 0.13 0.05 0.02 0.01 0.01 0.01 0.01 0.01 0.01 0.00 0.00 0.06 0.08 0.23 0.22 0.28 0.18 0.29 0.51 0.82 0.90 0.89 1.01 1.44 1.70 1.32 1.25 1.35
0.06 0.02 0.13 0.18 0.01 0.02 0.04 0.07 0.10 0.15 0.32 0.75 0.12 0.41 0.50 0.28 0.40 0.26 0.12 0.07 0.03 0.02 0.03 0.04 0.02 0.02 0.02 0.02 0.11 0.19 0.17 0.28 0.33 0.50 0.62 0.68 0.79 0.76 0.98 1.36 2.02 2.33 2.00 1.74
0.09 0.11 0.07 0.15 0.15 0.05 0.10 0.32 0.74 0.80 0.77 0.60 0.09 0.31 0.54 0.51 0.48 0.64 0.57 0.41 0.25 0.16 0.11 0.09 0.06 0.06 0.07 0.05 0.17 0.20 0.20 0.32 0.37 0.50 0.61 0.68 0.86 1.11 1.09 1.16 1.75 2.37 2.96 2.81
0.40 0.36 0.14 0.25 0.36 0.17 0.11 0.46 0.82 0.79 0.35 0.16 0.17 0.51 0.43 0.49 0.47 0.54 0.83 0.71 0.58 0.36 0.20 0.20 0.18 0.18 0.21 0.20 0.22 0.34 0.33 0.50 0.49 0.58 0.79 0.80 0.89 1.10 1.38 1.26 1.41 2.19 2.60 2.83
0.89 0.59 0.25 0.19 0.17 0.25 0.56 0.74 0.30 1.14 0.84 1.02 0.35 0.72 0.60 0.56 0.60 0.50 0.68 0.69 0.59 0.49 0.35 0.30 0.27 0.28 0.31 0.31 0.29 0.34 0.36 0.59 0.63 0.67 0.92 1.05 1.14 1.27 1.25 1.19 1.27 1.79 2.23 2.46
1.33 1.44 0.27 0.21 0.37 0.31 0.59 0.60 1.54 2.83 2.79 1.74 0.66 0.57 1.53 1.51 1.21 1.29 1.02 0.66 0.62 0.55 0.52 0.40 0.33 0.35 0.34 0.35 0.38 0.54 0.42 0.40 0.59 0.78 0.84 0.80 0.94 1.21 1.30 1.31 1.40 1.54 2.08 2.75
1.03 1.71 0.87 0.45 0.65 0.63 0.78 1.39 2.68 3.22 2.35 1.98 1.82 2.11 1.96 2.10 1.62 1.38 0.91 0.56 0.45 0.33 0.47 0.64 0.70 0.57 0.60 0.58 0.58 0.68 0.77 0.87 0.92 0.89 0.87 1.01 1.22 1.61 1.74 1.86 1.91 2.13 2.68 2.96
0.89 1.72 1.29 0.53 0.27 0.31 0.89 1.70 2.84 4.96 4.19 3.28 3.36 3.74 2.34 1.80 1.56 1.02 0.46 0.30 0.27 0.31 0.31 0.44 0.98 1.13 1.08 1.09 1.23 1.08 1.00 1.13 1.24 1.19 1.26 1.76 2.17 2.34 2.27 2.29 2.56 2.56 2.45 2.54
0.94 1.75 1.72 1.12 0.92 0.71 1.37 1.68 2.07 2.99 3.75 3.68 4.06 3.82 2.50 1.60 0.80 0.46 0.47 0.33 0.18 0.20 0.20 0.28 0.49 0.78 1.32 0.86 1.20 1.04 1.05 1.42 1.70 1.83 1.98 2.18 2.36 2.44 2.64 2.68 2.48 2.33 2.61 2.91
1.46 1.13 1.42 1.18 1.00 1.10 1.17 1.00 1.51 2.52 3.04 2.22 2.02 1.66 1.32 0.97 0.50 0.26 0.17 0.16 0.15 0.14 0.23 0.31 0.38 0.46 0.58 0.80 1.43 2.21 1.21 1.48 1.80 1.92 1.77 1.91 2.34 2.44 2.48 2.34 2.07 1.82 1.93 2.07
1.68 1.50 1.25 0.92 0.40 0.48 0.78 0.79 0.81 1.49 1.30 1.68 1.12 0.71 0.75 1.04 0.55 0.21 0.15 0.11 0.16 0.20 0.21 0.30 0.40 0.50 0.53 0.57 0.60 0.79 0.85 1.53 2.19 2.04 1.89 2.14 2.17 2.24 2.25 2.14 1.75 1.49 1.52 1.51
1.89 2.04 1.49 1.52 0.54 0.73 0.97 0.90 0.59 0.82 0.69 0.68 0.42 0.42 0.44 0.69 0.66 0.39 0.26 0.17 0.22 0.25 0.24 0.26 0.32 0.36 0.42 0.54 0.71 0.72 0.72 1.17 1.67 1.98 2.38 2.03 2.39 2.40 1.96 1.99 1.79 1.61 1.54 1.49
1.99 2.72 2.42 2.18 0.69 0.99 1.70 0.88 0.62 0.53 0.30 0.26 0.34 0.27 0.38 0.66 0.76 0.67 0.49 0.30 0.30 0.28 0.25 0.20 0.27 0.30 0.37 0.41 0.34 0.40 0.50 0.64 0.85 1.58 2.59 2.57 2.85 3.86 2.89 2.01 1.99 1.94 2.18 2.05
1.95 2.04 2.76 2.51 1.28 2.36 1.63 0.46 0.44 0.52 0.40 0.19 0.24 0.28 0.48 0.57 0.47 0.64 0.62 0.61 0.40 0.34 0.30 0.22 0.22 0.29 0.32 0.28 0.23 0.20 0.21 0.30 0.39 0.44 1.07 2.19 2.52 3.37 4.25 3.28 2.73 2.83 2.64 2.62
1.66 1.72 2.67 2.45 1.75 1.37 0.43 0.32 0.40 0.87 0.79 0.41 0.40 0.54 0.55 0.41 0.23 0.59 0.63 0.62 0.86 0.67 0.51 0.56 0.43 0.36 0.36 0.34 0.39 0.32 0.25 0.24 0.27 0.30 0.54 0.90 1.47 2.28 2.97 3.69 3.85 3.58 3.48 3.09
1.07 1.68 2.68 2.63 2.13 1.26 0.29 0.13 0.28 0.61 1.50 1.02 0.77 0.54 0.47 0.39 0.51 0.79 0.77 0.63 0.72 1.02 0.81 0.60 0.56 0.37 0.49 0.56 0.51 0.72 0.50 0.39 0.43 0.47 0.48 0.57 0.78 1.11 1.67 2.31 2.69 2.68 2.52 2.65
1.46 2.44 2.89 2.22 2.09 0.67 0.11 0.09 0.22 1.43 1.60 1.11 1.34 0.90 0.79 0.79 0.84 0.93 0.96 0.85 0.69 0.89 1.28 0.93 0.77 0.62 0.65 0.84 0.64 0.76 1.24 1.12 0.93 0.89 0.86 0.92 0.99 1.04 1.16 1.44 1.64 1.72 1.82 1.84
1.08 2.04 2.23 2.16 2.55 1.13 0.33 0.48 1.02 1.37 1.24 1.18 1.27 1.40 1.61 1.52 1.42 1.28 1.05 0.74 0.62 0.57 0.78 1.28 1.12 1.04 0.90 0.97 1.04 0.90 1.16 1.75 1.65 1.38 1.32 1.26 1.12 1.25 1.48 1.64 1.74 1.68 1.68 1.62
0.84 1.09 1.57 1.71 1.41 0.74 0.40 0.52 0.98 1.01 1.07 1.06 1.10 1.21 1.45 1.36 1.18 0.97 0.60 0.40 0.37 0.45 0.48 0.60 1.02 1.18 1.05 0.87 1.08 1.17 1.25 1.40 1.62 1.67 1.66 1.70 1.72 1.80 1.92 2.00 1.99 1.91 1.83 1.61
1.03 0.64 1.02 1.20 1.12 0.58 0.44 0.40 0.48 0.56 0.74 0.83 0.77 0.74 0.66 0.67 0.68 0.63 0.46 0.31 0.24 0.27 0.32 0.37 0.47 0.78 1.00 1.09 1.00 1.08 1.31 1.30 1.32 1.49 1.60 1.74 1.92 2.09 2.10 2.06 2.14 2.03 2.01 1.95
1.17 0.90 1.07 1.32 1.65 0.83 0.71 0.84 0.83 0.64 0.62 0.52 0.48 0.45 0.42 0.45 0.46 0.37 0.36 0.32 0.31 0.32 0.36 0.48 0.57 0.59 0.76 0.81 0.94 1.19 1.39 1.49 1.41 1.38 1.70 1.81 1.71 1.72 1.85 1.95 1.93 1.77 1.97 1.84
0.78 1.03 1.24 1.49 1.46 1.43 1.41 1.14 0.84 0.77 0.65 0.46 0.28 0.25 0.28 0.26 0.23 0.16 0.14 0.11 0.15 0.23 0.23 0.20 0.31 0.52 0.69 0.64 0.63 0.72 0.88 1.18 1.48 1.77 1.85 2.19 2.29 2.00 1.86 1.91 2.18 2.31 2.27 2.25